Torna al catalogo

STARLINK-35788

AttivoComunicazioniVLEO
NORAD 66831·PAYLOAD·🇺🇸 United States

Lanciato Dec 2, 2025 da Vandenberg Space Force Base

Loading…

Prossimi Passaggi (prossime 24 ore)

TLE

AggiornatoSource: CelesTrak SupGP

Epoca: Sep 15, 2026, 04:23 UTC

1 66831C 25280L   26258.18312500  .00015083  00000+0  12648-2 0  2581
2 66831  70.0010 216.5357 0003471 284.0709  74.6197 14.98299624    17

Traccia STARLINK-35788 in tempo reale con AllMySat

Download on the App Store